Location: Newark
(51.2000°N, 58.6167°E)
Time: 22:31:29
(UTC+00:00)

Envisat - Visible Passes

Search period start: 30 September 2020 00:00
Search period end: 10 October 2020 00:00
Orbit: 764 x 766 km, 98.1° (Epoch: 29 September)

Date Brightness Start Highest point End Pass type
(mag) Time Alt. Az. Time Alt. Az. Time Alt. Az.
30 Sep 6.8 15:06:01 10° W 15:06:59 10° W 15:07:58 10° WNW visible
01 Oct 5.4 01:25:46 10° NNE 01:30:13 30° E 01:34:39 10° SSE visible
01 Oct 6.0 14:25:48 10° SW 14:29:39 21° W 14:33:32 10° NW visible
02 Oct 6.2 00:50:02 10° NE 00:52:59 15° E 00:55:55 10° ESE visible
03 Oct 6.4 14:53:04 10° WSW 14:55:27 13° W 14:57:51 10° WNW visible
04 Oct 5.7 01:14:36 10° NE 01:18:45 24° E 01:22:52 10° SE visible
04 Oct 5.6 14:13:56 10° SSW 14:18:10 26° W 14:22:25 10° NW visible
05 Oct 6.5 00:39:23 10° ENE 00:41:27 12° E 00:43:30 10° ESE visible
06 Oct 4.8 01:39:38 10° NNE 01:44:25 39° E 01:49:09 10° SSE visible
06 Oct 6.2 14:40:46 10° SW 14:43:55 16° W 14:47:05 10° NW visible
07 Oct 6.0 01:03:32 10° NE 01:07:16 20° E 01:10:58 10° SE visible
07 Oct 5.2 14:02:12 10° SSW 14:06:42 32° W 14:11:14 10° NNW visible
09 Oct 5.2 01:28:24 10° NNE 01:32:58 32° E 01:37:29 10° SSE visible
09 Oct 6.0 14:28:43 10° SW 14:32:25 20° W 14:36:07 10° NW visible
